Regional Weather Roundup
Issued by NWS

Home | Current Version | Previous Version | Text Only | Print | Product List | Glossary On
Versions: 1 2 3 4 5 6 7 8 9 10 11 12 13 14 15 16 17 18 19 20 21 22 23 24 25 26 27 28 29 30 31 32 33 34 35 36 37 38 39 40 41 42 43 44 45 46 47 48 49 50
000
ASUS43 KOAX 221410
RWRNE

WEATHER ROUNDUP FOR NEBRASKA
NATIONAL WEATHER SERVICE OMAHA NE
900 AM CDT SUN OCT 22 2017

NOTES: SATELLITE DATA IS BEING USED TO AUGMENT CLOUD COVER ABOVE
       12000 FEET.
       "FAIR" INDICATES FEW OR NO CLOUDS BELOW 12,000 FEET WITH NO
       SIGNIFICANT WEATHER AND/OR OBSTRUCTIONS TO VISIBILITY.


NEZ001>004-019>022-054>056-221500-
NEBRASKA PANHANDLE

CITY           SKY/WX    TMP DP  RH WIND       PRES   REMARKS
SCOTTSBLUFF    CLEAR     40  22  48 W5        30.08R
ALLIANCE       CLEAR     35  22  58 S9        30.07R WCI  28
CHADRON        CLEAR     33  18  53 SW7       30.03R WCI  27
GORDON         FAIR      33  22  62 SW9       30.03R WCI  26
KIMBALL        CLOUDY    40  23  49 SW9       30.14R WCI  35
SIDNEY         CLOUDY    34  21  59 SW9       30.14S WCI  27
$$

NEZ057>060-069>072-079>082-221500-
SOUTHWEST NEBRASKA

CITY           SKY/WX    TMP DP  RH WIND       PRES   REMARKS
NORTH PLATTE   CLEAR     30  27  88 NW3       30.16R
IMPERIAL       CLEAR     33  24  69 W9        30.18R WCI  25
LEXINGTON      SUNNY     32  28  86 W6        30.15R WCI  26
MCCOOK         CLEAR     36  26  67 W10       30.18R WCI  28
OGALLALA       CLEAR     32  26  76 W7        30.16R WCI  26
$$

NEZ005>010-023>029-035>040-094-221500-
NORTH CENTRAL NEBRASKA

CITY           SKY/WX    TMP DP  RH WIND       PRES   REMARKS
VALENTINE      CLEAR     34  27  75 SW9       30.04R WCI  27
AINSWORTH      CLEAR     37  28  72 S7        30.06S WCI  31
BROKEN BOW     CLEAR     36  28  73 CALM      30.11R
O`NEILL        SUNNY     39  32  75 SW8       30.09R WCI  34
ORD            SUNNY     31  29  92 CALM      30.11R
THEDFORD       CLEAR     35  27  72 CALM      30.10S
$$

NEZ041-046>049-061>064-073>077-083>087-221500-
SOUTH CENTRAL NEBRASKA

CITY           SKY/WX    TMP DP  RH WIND       PRES   REMARKS
GRAND ISLAND   SUNNY     41  34  76 SW8       30.13R
AURORA         SUNNY     39  35  84 W5        30.12R
HASTINGS       SUNNY     38  31  76 SW3       30.14R
HEBRON         SUNNY     40  37  86 CALM      30.15R
HOLDREGE       SUNNY     37  29  73 W7        30.15R WCI  31
KEARNEY        SUNNY     38  28  67 CALM      30.15R
YORK           SUNNY     41  37  87 CALM      30.12S
$$

NEZ011>018-030>034-042>045-221500-
NORTHEAST NEBRASKA

CITY           SKY/WX    TMP DP  RH WIND       PRES   REMARKS
NORFOLK        SUNNY     36  33  89 CALM      30.10R
ALBION         SUNNY     33  32  95 CALM      30.11R
BLAIR          SUNNY     43  37  78 W5        30.10R
COLUMBUS       SUNNY     39  34  82 W5        30.12R
FREMONT        SUNNY     40  38  93 W3        30.11S
TEKAMAH        SUNNY     44  38  79 CALM      30.09S
WAYNE          SUNNY     37  35  91 CALM      30.09R
$$

NEZ050>053-065>068-078-088>093-221500-
SOUTHEAST NEBRASKA

CITY           SKY/WX    TMP DP  RH WIND       PRES   REMARKS
LINCOLN        SUNNY     43  36  76 CALM      30.14R
OMAHA EPPLEY   PTSUNNY   46  38  73 CALM      30.11R
BEATRICE       SUNNY     42  39  88 W3        30.14R
FALLS CITY     SUNNY     47  41  80 NW8       30.11R
NEBRASKA CITY  SUNNY     48  40  76 NW6       30.12R
PLATTSMOUTH    SUNNY     46  40  81 W6        30.11R
$$

NEZ044-045-051>053-067-221500-
OMAHA AREA

CITY           SKY/WX    TMP DP  RH WIND       PRES   REMARKS
OMAHA EPPLEY   PTSUNNY   46  38  73 CALM      30.11R
BLAIR          SUNNY     43  37  78 W5        30.10R
FREMONT        SUNNY     40  38  93 W3        30.11S
MILLARD        SUNNY     45  39  79 CALM      30.11R
OFFUTT AFB     SUNNY     45  40  83 CALM      30.11R
PLATTSMOUTH    SUNNY     46  40  81 W6        30.11R
WAHOO          FAIR      43  36  75 CALM      30.12R
$$




USA.gov is the U.S. government's official web portal to all federal, state and local government web resources and services.